Location: Seven Kings
(51.5667°N, 0.1000°E)
Time: 14:41:36
(UTC+00:00)

Cosmos 1346 Rocket - Pass Details

Date: 29 October 2020
Orbit: 535 x 543 km, 81.2° (Epoch: 28 November)

Event Time Altitude Azimuth Distance (km) Brightness Sun altitude
Rises 17:27:17 0° 354° (N) 2,719 6.3 -8.3°
Reaches altitude 10° 17:29:39 10° 5° (N) 1,822 5.3 -8.7°
Maximum altitude 17:33:15 31° 69° (ENE) 968 3.5 -9.2°
Drops below altitude 10° 17:36:50 10° 133° (SE) 1,810 5.1 -9.8°
Sets 17:39:10 0° 143° (SE) 2,698 6.1 -10.1°
